Weather History for ENGM - April, 2013

Change the Weather History Date:

Sunday, April 28, 2013

  Actual Average Record
Temperature  
Mean Temperature 38 °F -  
Max Temperature 50 °F 56 °F 68 °F (2014)
Min Temperature 26 °F 38 °F 26 °F (2013)
Degree Days  
Heating Degree Days 27    
Moisture  
Dew Point 26 °F    
Average Humidity 66    
Maximum Humidity 93    
Minimum Humidity 18    
Precipitation  
Precipitation 0.04 in 0.08 in - ()
Sea Level Pressure  
Sea Level Pressure 29.68 in    
Wind  
Wind Speed 8 mph ()    
Max Wind Speed 25 mph    
Max Gust Speed 32 mph    
Visibility 6.0 miles    
Events Rain    
Averages and records for this station are not official NWS values.
T = Trace of Precipitation, MM = Missing Value Source: Averaged Metar Reports

Daily Weather History Graph

Daily Weather History Graph

Search for Another Location

Airport or City:

Trip Planner

Search our weather history database for the weather conditions in past years. The results will help you decide how hot, cold, wet, or windy it might be!

Date:

Astronomy

Apr. 28, 2013 Rise Set
Actual Time 5:20 AM CEST 9:07 PM CEST
Civil Twilight 4:28 AM CEST 9:59 PM CEST
Nautical Twilight 3:10 AM CEST 11:20 PM CEST
Astronomical Twilight 1:45 AM CEST 12:40 AM CEST
Moon No Moon Rise 6:48 AM CEST (4/28)
Length of Visible Light 17h 31m
Length of Day
15h 46m
Waning Gibbous, 91% of the Moon is Illuminated
Apr 28
Waning Gibbous
May 2
Last Quarter
May 10
New
May 18
First Quarter
May 25
Full

Hourly Weather History & Observations

Time (CEST) Temp. Windchill Dew Point Humidity Pressure Visibility Wind Dir Wind Speed Gust Speed Precip Events Conditions
12:20 AM 32.0 °F 28.7 °F 19.4 °F 60% 29.77 in - North 3.5 mph - N/A   Clear
12:50 AM 32.0 °F - 21.2 °F 64% 29.77 in - Variable 2.3 mph - N/A   Clear
1:20 AM 32.0 °F - 21.2 °F 64% 29.77 in - Variable 2.3 mph - N/A   Clear
1:50 AM 30.2 °F - 21.2 °F 69% 29.77 in - NNE 2.3 mph - N/A   Clear
2:00 AM 29 °F - 21 °F 63%  in 47 mi Calm Calm - -   Partly Cloudy
2:20 AM 28.4 °F - 21.2 °F 74% 29.77 in - Calm Calm - N/A   Clear
2:50 AM 28.4 °F - 21.2 °F 74% 29.74 in - North 2.3 mph - N/A   Clear
3:20 AM 28.4 °F - 21.2 °F 74% 29.74 in - Calm Calm - N/A   Clear
3:50 AM 28.4 °F - 21.2 °F 74% 29.74 in - Calm Calm - N/A   Clear
4:20 AM 28.4 °F - 21.2 °F 74% 29.74 in - Calm Calm - N/A   Clear
4:50 AM 26.6 °F - 19.4 °F 74% 29.74 in - Calm Calm - N/A   Clear
5:50 AM 26.6 °F - 21.2 °F 80% 29.71 in - Variable 1.2 mph - N/A   Clear
6:20 AM 28.4 °F - 21.2 °F 74% 29.71 in - Calm Calm - N/A   Clear
6:50 AM 30.2 °F - 23.0 °F 75% 29.71 in - Calm Calm - N/A   Clear
7:20 AM 32.0 °F - 24.8 °F 75% 29.71 in - Calm Calm - N/A   Clear
7:50 AM 33.8 °F 29.6 °F 24.8 °F 70% 29.71 in - SSE 4.6 mph - N/A   Clear
8:00 AM 33 °F - 26 °F 68%  in 47 mi South 4.5 mph - -   Partly Cloudy
8:20 AM 33.8 °F 30.8 °F 26.6 °F 75% 29.71 in - SSW 3.5 mph - N/A   Clear
8:50 AM 35.6 °F 29.2 °F 26.6 °F 70% 29.71 in - South 8.1 mph - N/A   Clear
9:20 AM 37.4 °F 32.8 °F 28.4 °F 70% 29.71 in - SSW 5.8 mph - N/A   Clear
9:50 AM 39.2 °F 33.6 °F 28.4 °F 65% 29.68 in - South 8.1 mph - N/A   Clear
10:20 AM 41.0 °F 34.7 °F 28.4 °F 61% 29.68 in - South 10.4 mph - N/A   Clear
10:50 AM 42.8 °F 37.0 °F 28.4 °F 57% 29.68 in - South 10.4 mph - N/A   Clear
11:20 AM 48.2 °F - 24.8 °F 40% 29.68 in - SSW 20.7 mph 32.2 mph N/A   Clear
11:50 AM 48.2 °F - 24.8 °F 40% 29.68 in - SSW 21.9 mph - N/A   Clear
12:20 PM 48.2 °F - 19.4 °F 32% 29.68 in - South 25.3 mph - N/A   Clear
12:50 PM 48.2 °F - 12.2 °F 24% 29.65 in - SSW 23.0 mph - N/A   Clear
1:20 PM 50.0 °F - 14.0 °F 24% 29.65 in - South 24.2 mph - N/A   Clear
1:50 PM 48.2 °F - 14.0 °F 25% 29.65 in - SSW 21.9 mph - N/A   Clear
2:00 PM 48 °F - 18 °F 18%  in 47 mi SSW 20.1 mph - -   Partly Cloudy
2:20 PM 48.2 °F - 17.6 °F 30% 29.65 in - SSW 19.6 mph - N/A   Clear
2:50 PM 46.4 °F 38.3 °F 17.6 °F 32% 29.65 in - SSW 23.0 mph - N/A   Clear
3:20 PM 48.2 °F - 21.2 °F 34% 29.65 in - South 23.0 mph - N/A   Clear
3:50 PM 44.6 °F 35.7 °F 23.0 °F 43% 29.65 in - SSW 24.2 mph - N/A   Clear
4:20 PM 42.8 °F 34.3 °F 26.6 °F 53% 29.68 in 6.2 mi SSW 19.6 mph - N/A   Mostly Cloudy
4:50 PM 42.8 °F 33.3 °F 28.4 °F 57% 29.68 in 6.2 mi South 24.2 mph - N/A Rain Light Rain
5:20 PM 39.2 °F 28.7 °F 32.0 °F 75% 29.68 in 6.2 mi South 23.0 mph - N/A Rain Light Rain
5:50 PM 39.2 °F 29.8 °F 33.8 °F 81% 29.68 in 6.2 mi South 18.4 mph - N/A Rain Light Rain
6:20 PM 39.2 °F 29.8 °F 33.8 °F 81% 29.65 in 6.2 mi South 18.4 mph - N/A Rain Light Rain
6:50 PM 39.2 °F 29.3 °F 33.8 °F 81% 29.65 in 6.2 mi South 20.7 mph - N/A Rain Light Rain
7:20 PM 37.4 °F 27.5 °F 33.8 °F 87% 29.65 in 6.2 mi South 18.4 mph - N/A Rain Light Rain
7:50 PM 37.4 °F 26.9 °F 33.8 °F 87% 29.65 in 6.2 mi South 20.7 mph - N/A Rain Light Rain
8:00 PM 37 °F - 34 °F 83%  in 6 mi South 15.7 mph - - Rain Light Rain
8:20 PM 37.4 °F 27.2 °F 33.8 °F 87% 29.65 in 6.2 mi South 19.6 mph - N/A Rain Light Rain
8:50 PM 37.4 °F 27.2 °F 33.8 °F 87% 29.62 in 5.6 mi South 19.6 mph - N/A Rain Light Rain
9:20 PM 35.6 °F 24.5 °F 33.8 °F 93% 29.62 in 6.2 mi South 20.7 mph - N/A Rain Light Rain
9:50 PM 35.6 °F 24.8 °F 33.8 °F 93% 29.62 in 6.2 mi South 19.6 mph - N/A Rain Light Rain
10:20 PM 35.6 °F 24.8 °F 33.8 °F 93% 29.62 in 6.2 mi South 19.6 mph - N/A Rain Light Rain
10:50 PM 35.6 °F 25.2 °F 32.0 °F 87% 29.62 in 5.0 mi South 18.4 mph - N/A Rain Light Rain
11:20 PM 35.6 °F 25.9 °F 32.0 °F 87% 29.62 in 5.0 mi South 16.1 mph - N/A Rain Light Rain
11:50 PM 35.6 °F 25.5 °F 33.8 °F 93% 29.59 in 6.2 mi South 17.3 mph - N/A Rain Light Rain